OPS 6630 (2)

Satellite information

Favourite Embed

Satellite Type and Status

PAYLOADIN ORBIT

Key statistics

Satellite OPS 6630 (2) at a glance.

Uptime

18981

Days in orbit

Revolutions

≈ 12.6

Per day

Orbit

SSO

Sun Synchronous Orbit

Inclination

96.9

Latest

Satellite identification and parameters

Extended collection of information and parameters for OPS 6630 (2).

Object identification

Identified? True

Debris? False

Object name: OPS 6630 (2)

International designator: 1973-088D

Object number (NORAD): 6938

Object ID (CCSDS): 6938

Country: UNITED STATES OF AMERICA (US)

Current information (Y/N): Y

RCS size: MEDIUM

Orbital parameters

Period: 114.54 minutes

Inclination: 96.9327 deg

SMA: 7812.652 km

Apoapsis: 1455.08 km

Periapsis: 1413.953 km

RAAN: 99.0367 deg

Eccentricy: 0.00263206

Argument of periapsis: 186.1139 deg

Mean anomaly: 294.7054 deg

Mean motion: 12.5720197 rev/day

Mean motion (dot): -0.00000005 rev/day2

B* drag term: 0.000079321152 1/REarth

Two-line elements (TLE)

Creation date: Oct. 28, 2025, 2:18 a.m.

Reference frame: TEME

Reference center: EARTH

Epoch: Oct. 27, 2025, 10:15 p.m. UTC

TLE line 0: 0 OPS 6630 (2)

TLE line 1: 1 06938U 73088D 25300.92720575 -.00000005 00000-0 79321-4 0 9991

TLE line 2: 2 06938 96.9327 99.0367 0026321 186.1139 294.7054 12.57201970383954

Live tracking on map

Real-time ground track for satellite OPS 6630 (2).

In-orbit conjunctions

There are no conjunctions computed for OPS 6630 (2), at the moment. Check back to stay up to date, as we update our databases every day.

Go to all conjunctions

Associated space launch

Large reconnaissance satellite equipped with four return capsules.

OPS 6630 (2) was lifted into orbit during the mission ‘Titan IIID | KH-9 7’, on board a Titan IIID space rocket.

The launch took place on Nov. 10, 1973, 8:12 p.m. from Space Launch Complex 4E.

For more information about the launch, click the button.

Launch to space Titan IIID | KH-9 7
Titan IIID | KH-9 7

Agency: N/A

Status: Launch Successful

Launch date: Nov. 10, 1973, 8:12 p.m. UTC

Rocket: Titan IIID

Launch pad: Space Launch Complex 4E

Location: Vandenberg SFB, CA, USA

...

Latest news about this satellite

There are no fresh news available about this satellite. Check back as we update our databases every day.


Newsletter sign-up

Weekly statistics, charts and insights to help you stay on top of the space industry.